Location: Vancouver
(49.2500°N, 123.1330°W)
Time: 06:26:29
(UTC-08:00)

deb Explorer IX - Visible Passes

Search period start: 26 January 2015 00:00
Search period end: 05 February 2015 00:00
Orbit: 556 x 1178 km, 38.8° (Epoch: 25 January)

Date Brightness Start Highest point End Pass type
(mag) Time Alt. Az. Time Alt. Az. Time Alt. Az.
26 Jan ? 18:40:21 10° SW 18:43:23 17° SSW 18:46:37 10° SSE visible
27 Jan ? 18:31:36 10° SW 18:34:16 15° SSW 18:37:05 10° SSE visible
28 Jan ? 18:22:57 10° SW 18:25:08 13° SSW 18:27:23 10° S visible
29 Jan ? 18:14:29 10° SW 18:15:58 11° SSW 18:17:25 10° S visible
